Previsão horária em Aberfoyle

Hoje, 12 Abril, Segunda-feira

Tempo Temperatura Precipitação Vento Pressão Humidade
00:00 -2°C° 0 mm 1 m/s 744 mmHg 83%
01:00 -2°C° 0 mm 1 m/s 744 mmHg 83%
02:00 -2°C° 0 mm 1 m/s 744 mmHg 83%
03:00 -2°C° 0 mm 1 m/s 744 mmHg 83%
04:00 -2°C° 0 mm 1 m/s 745 mmHg 83%
05:00 -2°C° 0 mm 1 m/s 745 mmHg 82%
06:00 -2°C° 0 mm 1 m/s 745 mmHg 82%
07:00 0°C° 0 mm 1 m/s 745 mmHg 74%
08:00 +2°C° 0 mm 1 m/s 746 mmHg 65%
09:00 +4°C° 0 mm 1 m/s 746 mmHg 57%
10:00 +5°C° 0 mm 1 m/s 746 mmHg 51%
11:00 +6°C° 0 mm 1 m/s 746 mmHg 45%
12:00 +7°C° 0 mm 1 m/s 747 mmHg 39%
13:00 +7°C° 0 mm 1 m/s 746 mmHg 39%
14:00 +7°C° 0 mm 1 m/s 746 mmHg 38%
15:00 +8°C° 0 mm 1 m/s 746 mmHg 36%
16:00 +7°C° 0 mm 1 m/s 747 mmHg 42%
17:00 +6°C° 0 mm 1 m/s 747 mmHg 48%
18:00 +5°C° 0 mm 1 m/s 747 mmHg 54%
19:00 +4°C° 0 mm 1 m/s 747 mmHg 58%
20:00 +2°C° 0 mm 1 m/s 748 mmHg 62%
21:00 +1°C° 0 mm 1 m/s 748 mmHg 67%
22:00 0°C° 0 mm 1 m/s 748 mmHg 67%
23:00 0°C° 0 mm 1 m/s 748 mmHg 68%

Amanhã, 13 Abril, Terça-feira

Tempo Temperatura Precipitação Vento Pressão Humidade
00:00 0°C° 0 mm 1 m/s 748 mmHg 69%
01:00 0°C° 0 mm 1 m/s 748 mmHg 69%
02:00 -1°C° 0 mm 0 m/s 748 mmHg 69%
03:00 -1°C° 0 mm 0 m/s 748 mmHg 70%
04:00 -1°C° 0 mm 0 m/s 748 mmHg 69%
05:00 -1°C° 0 mm 0 m/s 749 mmHg 68%
06:00 0°C° 0 mm 0 m/s 749 mmHg 67%
07:00 +1°C° 0 mm 0 m/s 749 mmHg 63%
08:00 +3°C° 0 mm 0 m/s 749 mmHg 60%
09:00 +6°C° 0 mm 1 m/s 749 mmHg 57%
10:00 +7°C° 0 mm 1 m/s 749 mmHg 58%
11:00 +8°C° 0 mm 1 m/s 749 mmHg 59%
12:00 +9°C° 0 mm 1 m/s 749 mmHg 61%
13:00 +8°C° 0.1 mm 1 m/s 749 mmHg 65%
14:00 +7°C° 0.1 mm 2 m/s 749 mmHg 69%
15:00 +7°C° 0.1 mm 2 m/s 749 mmHg 73%
16:00 +6°C° 0 mm 2 m/s 749 mmHg 77%
17:00 +7°C° 0 mm 1 m/s 749 mmHg 81%
18:00 +6°C° 0 mm 1 m/s 749 mmHg 86%
19:00 +5°C° 0 mm 1 m/s 749 mmHg 88%
20:00 +4°C° 0 mm 1 m/s 750 mmHg 91%
21:00 +3°C° 0 mm 1 m/s 750 mmHg 94%
22:00 +3°C° 0 mm 1 m/s 750 mmHg 94%
23:00 +2°C° 0 mm 1 m/s 750 mmHg 94%

Depois de amanhã, 14 Abril, Quarta-feira

Tempo Temperatura Precipitação Vento Pressão Humidade
00:00 +1°C° 0 mm 0 m/s 750 mmHg 94%
01:00 +1°C° 0 mm 0 m/s 750 mmHg 94%
02:00 0°C° 0 mm 0 m/s 750 mmHg 94%
03:00 0°C° 0 mm 0 m/s 751 mmHg 93%
04:00 0°C° 0 mm 0 m/s 751 mmHg 93%
05:00 0°C° 0 mm 0 m/s 751 mmHg 93%
06:00 +1°C° 0 mm 0 m/s 751 mmHg 93%
07:00 +2°C° 0 mm 0 m/s 751 mmHg 86%
08:00 +4°C° 0 mm 0 m/s 751 mmHg 79%
09:00 +6°C° 0 mm 0 m/s 752 mmHg 73%
10:00 +7°C° 0 mm 0 m/s 752 mmHg 68%
11:00 +9°C° 0 mm 1 m/s 752 mmHg 63%
12:00 +11°C° 0 mm 1 m/s 752 mmHg 59%
13:00 +10°C° 0.1 mm 1 m/s 751 mmHg 59%
14:00 +9°C° 0.1 mm 0 m/s 751 mmHg 60%
15:00 +9°C° 0.1 mm 0 m/s 751 mmHg 60%
16:00 +9°C° 0.1 mm 1 m/s 751 mmHg 64%
17:00 +9°C° 0.1 mm 1 m/s 751 mmHg 68%
18:00 +9°C° 0.1 mm 1 m/s 751 mmHg 72%
19:00 +7°C° 0 mm 1 m/s 752 mmHg 76%
20:00 +6°C° 0 mm 1 m/s 752 mmHg 79%
21:00 +5°C° 0 mm 1 m/s 752 mmHg 83%
22:00 +4°C° 0 mm 1 m/s 752 mmHg 84%
23:00 +4°C° 0 mm 1 m/s 752 mmHg 85%

15 Abril, Quinta-feira

Tempo Temperatura Precipitação Vento Pressão Humidade
00:00 +3°C° 0 mm 1 m/s 752 mmHg 87%
01:00 +3°C° 0 mm 1 m/s 752 mmHg 87%
02:00 +3°C° 0 mm 1 m/s 752 mmHg 88%
03:00 +2°C° 0 mm 1 m/s 752 mmHg 88%
04:00 +2°C° 0 mm 1 m/s 752 mmHg 87%
05:00 +2°C° 0 mm 1 m/s 753 mmHg 87%
06:00 +2°C° 0 mm 1 m/s 753 mmHg 86%
07:00 +4°C° 0 mm 1 m/s 753 mmHg 79%
08:00 +6°C° 0 mm 1 m/s 753 mmHg 73%
09:00 +7°C° 0 mm 1 m/s 753 mmHg 66%
10:00 +7°C° 0 mm 2 m/s 753 mmHg 62%
11:00 +8°C° 0 mm 2 m/s 753 mmHg 58%
12:00 +9°C° 0 mm 2 m/s 753 mmHg 54%
13:00 +9°C° 0 mm 3 m/s 752 mmHg 52%
14:00 +9°C° 0 mm 3 m/s 752 mmHg 50%
15:00 +9°C° 0 mm 3 m/s 752 mmHg 49%
16:00 +8°C° 0 mm 3 m/s 752 mmHg 53%
17:00 +7°C° 0 mm 3 m/s 752 mmHg 57%
18:00 +7°C° 0 mm 3 m/s 752 mmHg 61%
19:00 +5°C° 0 mm 2 m/s 752 mmHg 68%
20:00 +3°C° 0 mm 2 m/s 752 mmHg 75%
21:00 +3°C° 0 mm 1 m/s 753 mmHg 81%
22:00 +3°C° 0 mm 1 m/s 753 mmHg 82%
23:00 +3°C° 0 mm 1 m/s 753 mmHg 83%

16 Abril, Sexta-feira

Tempo Temperatura Precipitação Vento Pressão Humidade
00:00 +3°C° 0 mm 1 m/s 753 mmHg 83%
01:00 +2°C° 0 mm 1 m/s 753 mmHg 86%
02:00 +1°C° 0 mm 1 m/s 753 mmHg 89%
03:00 +1°C° 0 mm 1 m/s 753 mmHg 91%
04:00 +1°C° 0 mm 1 m/s 753 mmHg 91%
05:00 +1°C° 0 mm 1 m/s 753 mmHg 91%
06:00 0°C° 0 mm 0 m/s 753 mmHg 91%
07:00 +3°C° 0 mm 1 m/s 753 mmHg 82%
08:00 +5°C° 0 mm 1 m/s 753 mmHg 74%
09:00 +6°C° 0 mm 1 m/s 754 mmHg 66%
10:00 +8°C° 0 mm 1 m/s 754 mmHg 59%
11:00 +9°C° 0 mm 1 m/s 754 mmHg 53%
12:00 +9°C° 0 mm 2 m/s 754 mmHg 47%
13:00 +9°C° 0 mm 2 m/s 753 mmHg 45%
14:00 +9°C° 0 mm 2 m/s 753 mmHg 43%
15:00 +10°C° 0 mm 2 m/s 753 mmHg 41%
16:00 +9°C° 0 mm 2 m/s 753 mmHg 46%
17:00 +10°C° 0 mm 1 m/s 753 mmHg 51%
18:00 +9°C° 0 mm 1 m/s 753 mmHg 57%
19:00 +7°C° 0 mm 1 m/s 753 mmHg 64%
20:00 +5°C° 0 mm 1 m/s 753 mmHg 70%
21:00 +3°C° 0 mm 1 m/s 754 mmHg 77%
22:00 +3°C° 0 mm 1 m/s 754 mmHg 79%
23:00 +3°C° 0 mm 1 m/s 754 mmHg 81%

17 Abril, Sábado

Tempo Temperatura Precipitação Vento Pressão Humidade
00:00 +2°C° 0 mm 1 m/s 753 mmHg 83%
01:00 +2°C° 0 mm 1 m/s 753 mmHg 84%
02:00 +2°C° 0 mm 1 m/s 753 mmHg 85%
03:00 +1°C° 0 mm 1 m/s 753 mmHg 86%
04:00 +2°C° 0 mm 1 m/s 753 mmHg 85%
05:00 +2°C° 0 mm 1 m/s 753 mmHg 84%
06:00 +2°C° 0 mm 1 m/s 753 mmHg 83%
07:00 +4°C° 0 mm 1 m/s 753 mmHg 75%
08:00 +6°C° 0 mm 1 m/s 753 mmHg 67%
09:00 +8°C° 0 mm 1 m/s 753 mmHg 59%
10:00 +9°C° 0 mm 1 m/s 753 mmHg 55%
11:00 +10°C° 0 mm 1 m/s 752 mmHg 50%
12:00 +10°C° 0 mm 2 m/s 752 mmHg 45%
13:00 +12°C° 0 mm 2 m/s 752 mmHg 44%
14:00 +12°C° 0 mm 2 m/s 751 mmHg 43%
15:00 +12°C° 0 mm 1 m/s 751 mmHg 43%
16:00 +12°C° 0 mm 1 m/s 751 mmHg 49%
17:00 +11°C° 0 mm 1 m/s 751 mmHg 55%
18:00 +11°C° 0 mm 1 m/s 750 mmHg 61%
19:00 +9°C° 0 mm 1 m/s 751 mmHg 67%
20:00 +7°C° 0 mm 1 m/s 751 mmHg 74%
21:00 +5°C° 0 mm 1 m/s 751 mmHg 81%
22:00 +4°C° 0 mm 1 m/s 751 mmHg 83%
23:00 +4°C° 0 mm 1 m/s 751 mmHg 85%
Mostrar mais